Location: Helsinki
(60.1699°N, 24.9384°E)
Time: 17:13:30
(UTC+02:00)

A-11 Canister half - Pass Details

Date: 03 November 2020
Orbit: 1525 x 1684 km, 47.3° (Epoch: 29 November)

Event Time Altitude Azimuth Distance (km) Brightness Sun altitude
Rises 18:17:19 0° 272° (W) 4,741 13.4 -14.9°
Reaches altitude 10° 18:20:57 10° 261° (W) 3,736 12.4 -15.4°
Maximum altitude 18:28:23 28° 208° (SSW) 2,589 10.5 -16.3°
Drops below altitude 10° 18:35:44 10° 155° (SSE) 3,688 10.8 -17.2°
Sets 18:39:18 0° 144° (SE) 4,670 11.2 -17.7°
